SES-11 (ECHOSTAR 105)

Last updated on Thu Jul 03 2025 00:02:47 GMT+0000 (Coordinated Universal Time)

1 42967U 17063A 25183.54577023 -.00000081 00000+0 00000+0 0 9995 2 42967 0.0154 31.1510 0002700 63.1498 278.0421 1.00271905 28213
UTC large
Height (km)
Speed (km/s)
/
Latitude / Longitude
Inclination (degrees)
Orbital Period (minutes)
Azimuth
Elevation
Range (km)
Doppler Factor

Next 0 passes for location: London (51.5072 / 0.1276)

Sorry there are no passes over London.